Location: Tel Aviv
(32.0670°N, 34.7670°E)
Time: 02:31:41
(UTC+03:00)

Tiros 1 - Pass Details

Date: 19 January 2022
Orbit: 629 x 663 km, 48.4° (Epoch: 26 May)

Event Time Altitude Azimuth Distance (km) Brightness Sun altitude
Rises 01:32:02 0° 269° (W) 2,985 - -64.7°
Reaches altitude 10° 01:34:52 10° 285° (WNW) 2,071 - -64.1°
Maximum altitude 01:38:32 21° 335° (NNW) 1,449 - -63.4°
Drops below altitude 10° 01:42:12 10° 26° (NNE) 2,061 - -62.7°
Sets 01:45:01 0° 42° (NE) 2,967 - -62.1°
